Orbital Elements at Epoch 2459200.5 (2020-Dec-17.0) TDB
Reference: JPL 35 (heliocentric ecliptic J2000)
Element | Value | Uncertainty (1-sigma) | Units |
e | .103571366570307 | 3.6289e-08 | |
a | 2.141847527925154 | 6.2152e-09 | au |
q | 1.920013452472712 | 7.7351e-08 | au |
i | 3.990265662658406 | 4.0012e-06 | deg |
node | 299.1869244143599 | 4.5138e-05 | deg |
peri | 344.816284171037 | 4.8999e-05 | deg |
M | 299.2717581577298 | 2.0035e-05 | deg |
tp | 2459393.638769937645 (2021-Jun-28.13876994) | 6.3831e-05 | TDB |
period | 1144.936113219655 3.13 | 4.9835e-06 1.364e-08 | d yr |
n | .3144280242743416 | 1.3686e-09 | deg/d |
Q | 2.363681603377596 | 6.8589e-09 | au |
|
| | Orbit Determination Parameters
Additional Information
|